Regional Weather Roundup
Issued by NWS

Home | Current Version | Previous Version | Text Only | Print | Product List | Glossary Off
Versions: 1 2 3 4 5 6 7 8 9 10 11 12 13 14 15 16 17 18 19 20 21 22 23 24 25 26 27 28 29 30 31 32 33 34 35 36 37 38 39 40 41 42 43 44 45 46 47 48 49 50

000
ASUS43 KOAX 210510
RWRNE

WEATHER ROUNDUP FOR NEBRASKA
NATIONAL WEATHER SERVICE OMAHA NE
1200 AM CDT MON APR 21 2014

NOTES: SATELLITE DATA IS BEING USED TO AUGMENT CLOUD COVER ABOVE
       12000 FEET.
       "FAIR" INDICATES FEW OR NO CLOUDS BELOW 12,000 FEET WITH NO
       SIGNIFICANT WEATHER AND/OR OBSTRUCTIONS TO VISIBILITY.

  * THESE STATIONS DO NOT REPORT WEATHER SUCH AS RAIN...SNOW OR FOG.

NEZ001>004-019>022-054>056-210600-
NEBRASKA PANHANDLE

CITY           SKY/WX    TMP DP  RH WIND       PRES   REMARKS
SCOTTSBLUFF    CLEAR     54  31  41 N17       30.09R
ALLIANCE       CLEAR     46  33  60 N10       30.08R
CHADRON        CLEAR     47  33  58 CALM      30.10R
KIMBALL        PTCLDY    53  34  49 NE12G23   30.09R
SIDNEY         CLEAR     53  34  48 NE12      30.09R
$$

NEZ057>060-069>072-079>082-210600-
SOUTHWEST NEBRASKA

CITY           SKY/WX    TMP DP  RH WIND       PRES   REMARKS
NORTH PLATTE   MOCLDY    57  50  77 NW16      30.00R
IMPERIAL       CLEAR     58  45  62 S3G16     29.99R
LEXINGTON      MOCLDY    60  54  79 S10       29.95F
MCCOOK         CLOUDY    58  53  84 S8        29.97S
OGALLALA       CLEAR     61  37  41 N17       30.01R
$$

NEZ005>010-023>029-035>040-094-210600-
NORTH CENTRAL NEBRASKA

CITY           SKY/WX    TMP DP  RH WIND       PRES   REMARKS
VALENTINE      PTCLDY    60  32  34 N22G30    29.99R
AINSWORTH      PTCLDY    59  42  52 N7        29.99S
BROKEN BOW     MOCLDY    57  50  77 SW3       29.94S
O`NEILL        TSTM      62  50  66 SW15      29.92F
ORD            MOCLDY    61  51  70 NW9       29.96R
THEDFORD       PTCLDY    64  38  38 N22G28    30.00R
$$

NEZ041-046>049-061>064-073>077-083>087-210600-
SOUTH CENTRAL NEBRASKA

CITY           SKY/WX    TMP DP  RH WIND       PRES   REMARKS
GRAND ISLAND   CLOUDY    62  54  74 S7        29.95R
AURORA         CLOUDY    63  53  71 S9        29.96R
HASTINGS       CLOUDY    61  51  70 SW6       29.96R
HEBRON         CLOUDY    62  55  78 S9        29.96S
HOLDREGE       CLOUDY    58  54  84 SW8       29.96S
KEARNEY *      CLOUDY    61  54  77 S9        29.96S
YORK           CLOUDY    61  55  82 S13       29.95S
$$

NEZ011>018-030>034-042>045-210600-
NORTHEAST NEBRASKA

CITY           SKY/WX    TMP DP  RH WIND       PRES   REMARKS
NORFOLK        MOCLDY    63  54  72 S14       29.91F
ALBION         MOCLDY    60  51  73 SE5       29.93F
BLAIR          CLOUDY    62  56  81 S12       29.95S
COLUMBUS *     CLOUDY    54  52  94 S10       29.95S
FREMONT        MOCLDY    64  56  75 CALM      29.95R
TEKAMAH        CLOUDY    65  56  72 SE17      29.94S
$$

NEZ050>053-065>068-078-088>093-210600-
SOUTHEAST NEBRASKA

CITY           SKY/WX    TMP DP  RH WIND       PRES   REMARKS
LINCOLN        MOCLDY    59  54  83 S6        29.96F
OMAHA EPPLEY   CLOUDY    62  58  86 S10       29.95F
BEATRICE       CLOUDY    64  55  70 S8        29.97S
FALLS CITY     CLOUDY    65  58  78 S7        29.96F
NEBRASKA CITY  CLOUDY    63  57  82 SW12      29.97F
PLATTSMOUTH    CLOUDY    62  56  82 S7        29.97F
$$

NEZ044-045-051>053-067-210600-
OMAHA AREA

CITY           SKY/WX    TMP DP  RH WIND       PRES   REMARKS
OMAHA EPPLEY   CLOUDY    62  58  86 S10       29.95F
BLAIR          CLOUDY    62  56  81 S12       29.95S
FREMONT        MOCLDY    64  56  75 CALM      29.95R
MILLARD        DRIZZLE   64  55  75 S6        29.94F
OFFUTT AFB     CLOUDY    61  61 100 SE5       29.95F
PLATTSMOUTH    CLOUDY    62  56  82 S7        29.97F
WAHOO          FAIR      64  55  73 S13       29.94S
$$



USA.gov is the U.S. government's official web portal to all federal, state and local government web resources and services.